This is the latest recevied weather packets stored in our database for station/object KB3AWQ. If no packets are shown the sender has not sent any weather packets the latest 10 day(s).
| Time | Temp. | Humidity | Pressure | Rain* | Wind** | Luminosity | Snow |
|---|---|---|---|---|---|---|---|
| 1777996466 | 25° C | 52% | 1008.1 hPa | 0 mm | - | 467 W/m² | - |
| 1777996167 | 25° C | 51% | 1008.1 hPa | 0 mm | - | 914 W/m² | - |
| 1777995867 | 25° C | 50% | 1008.2 hPa | 0 mm | - | 232 W/m² | - |
| 1777995567 | 25° C | 52% | 1008.2 hPa | 0 mm | - | 299 W/m² | - |
| 1777995269 | 25.56° C | 49% | 1008.2 hPa | 0 mm | - | 352 W/m² | - |
| 1777994967 | 25.56° C | 51% | 1008.2 hPa | 0 mm | - | 880 W/m² | - |
| 1777994667 | 25.56° C | 50% | 1008.2 hPa | 0 mm | - | 598 W/m² | - |
| 1777994370 | 25.56° C | 50% | 1008.2 hPa | 0 mm | - | 818 W/m² | - |
| 1777994067 | 25.56° C | 50% | 1008.2 hPa | 0 mm | - | 922 W/m² | - |
| 1777993768 | 25.56° C | 51% | 1008.1 hPa | 0 mm | - | 550 W/m² | - |
| 1777993466 | 25.56° C | 48% | 1008.1 hPa | 0 mm | - | 920 W/m² | - |
| 1777993166 | 25.56° C | 53% | 1008.1 hPa | 0 mm | - | 793 W/m² | - |
| 1777992868 | 25° C | 50% | 1008.1 hPa | 0 mm | - | 619 W/m² | - |
| 1777992567 | 24.44° C | 53% | 1008.1 hPa | 0 mm | - | 604 W/m² | - |
| 1777992267 | 24.44° C | 54% | 1008.1 hPa | 0 mm | - | 758 W/m² | - |
| 1777991968 | 24.44° C | 54% | 1008.2 hPa | 0 mm | - | 228 W/m² | - |
| 1777991667 | 24.44° C | 56% | 1008.2 hPa | 0 mm | - | 751 W/m² | - |
| 1777991366 | 24.44° C | 56% | 1008.3 hPa | 0 mm | - | 184 W/m² | - |
| 1777991069 | 23.89° C | 57% | 1008.2 hPa | 0 mm | - | 513 W/m² | - |
| 1777990501 | 23.89° C | 57% | 1008.3 hPa | 0 mm | - | 648 W/m² | - |
| 1777989867 | 22.78° C | 60% | 1008.3 hPa | 0 mm | - | 640 W/m² | - |
| 1777989569 | 22.22° C | 61% | 1008.4 hPa | 0 mm | - | 644 W/m² | - |
| 1777989270 | 21.67° C | 63% | 1008.4 hPa | 0 mm | - | 420 W/m² | - |
| 1777988969 | 20.56° C | 67% | 1008.4 hPa | 0 mm | - | 607 W/m² | - |
| 1777988669 | 20° C | 70% | 1008.4 hPa | 0 mm | - | 583 W/m² | - |
* Rain latest hour (hover to see other rain measurements)
** Current wind speed in m/s (hover to see current wind gust speed)